Simultaneous Nadir Overpasses (SNOs) Predictions

Prediction of SNOs between LANDSAT-8 and METOP-B Satellite Orbit:

Table of predicted SNOs for the next 14.0 days since TLE Epoch: 6/29/2024
Index Date (LANDSAT-8) Time (LANDSAT-8) Lat,Lon (LANDSAT-8) SZA (LANDSAT-8 ) Date (METOP-B) Time (METOP-B) Lat,Lon (METOP-B) SZA (METOP-B ) Distance(km) Time Diff (sec)
1 06/29/2024 17:17:37 81.37, -35.04 60.68 06/29/2024 17:17:10 81.37, -34.91 60.69 2.20 27
2 06/29/2024 18:07:04 -81.37, 132.49 119.33 06/29/2024 18:07:51 -81.37, 132.42 119.32 1.18 47
3 07/02/2024 12:51:52 81.37, 31.37 60.86 07/02/2024 12:51:41 81.37, 31.26 60.84 1.80 11
4 07/02/2024 13:41:19 -81.37,-161.08 119.15 07/02/2024 13:42:21 -81.37,-160.98 119.11 1.87 62
5 07/05/2024 07:36:39 -81.37, -69.89 118.92 07/05/2024 07:35:30 -81.37, -69.85 118.95 0.61 69
6 07/05/2024 08:26:05 81.37, 97.84 61.10 07/05/2024 08:26:10 81.37, 97.72 61.09 2.10 5
7 07/08/2024 03:10:52 -81.37, -3.33 118.62 07/08/2024 03:10:00 -81.37, -3.49 118.66 2.81 52
8 07/08/2024 04:00:18 81.38, 164.37 61.40 07/08/2024 04:00:39 81.38, 164.45 61.42 1.26 21
9 07/10/2024 22:45:05 -81.36, 62.90 118.31 07/10/2024 22:44:30 -81.36, 62.76 118.34 2.40 35



Historial Predications of SNOs between LANDSAT-8 and METOP-B
